This demonstration page uses our WeatherBlox Daily Observations layout. Learn more.

Left ArrowRight Arrow

39.08367, -84.50855

Hourly Observations for August 14, 2015

Temp ( °F °C ) Dew Point ( °F °C ) Humidity (%) Winds ( mph kmh ) Pressure ( in mb ) Visibility ( mi km ) Precip ( " mm )
12:53 am 00:53 Clear 64 17.8 64 17.8 100 100 N N/A 30.15 1021 9 14 N/A
1:53 am 01:53 Clear 63 17.2 62 16.7 97 97 N N/A 30.15 1021 10 16 N/A
2:53 am 02:53 Clear with Mist and Fog 62 16.7 62 16.7 100 100 N N/A 30.14 1021 6 10 N/A
3:53 am 03:53 Clear 61 16.1 61 16.1 100 100 N N/A 30.14 1021 8 13 N/A
4:12 am 04:12 Clear with Mist and Fog 61 16 59 15 94 94 N N/A 30.12 1020 2 3 N/A
4:23 am 04:23 Clear with Mist and Fog 61 16.1 60 15.6 97 97 N N/A 30.12 1020 3 5 N/A
4:53 am 04:53 Clear with Mist and Fog 60 15.6 60 15.6 100 100 N N/A 30.14 1021 6 10 N/A
5:41 am 05:41 Clear with Mist and Fog 60 15.6 60 15.6 100 100 N N/A 30.18 1022 2 3 N/A
5:51 am 05:51 Clear 61 16 61 16 100 100 N N/A 30.18 1022 8 13 N/A
5:53 am 05:53 Clear 60 15.6 60 15.6 100 100 N N/A 30.16 1022 8 13 N/A
6:53 am 06:53 Sunny with Patchy Fog 60 15.6 60 15.6 100 100 N N/A 30.19 1022 10 16 N/A
7:53 am 07:53 Partly Cloudy 62 16.7 62 16.7 100 100 N N/A 30.19 1022 10 16 N/A
8:53 am 08:53 Sunny 65 18.3 64 17.8 97 97 N N/A 30.20 1023 10 16 N/A
9:53 am 09:53 Sunny 70 21.1 65 18.3 84 84 N N/A 30.20 1023 10 16 N/A
10:53 am 10:53 Sunny 75 23.9 64 17.8 69 69 N N/A 30.20 1023 10 16 N/A
11:53 am 11:53 Sunny 78 25.6 65 18.3 64 64 SE 5 7 30.20 1023 10 16 N/A
12:53 pm 12:53 Sunny 78 25.6 64 17.8 62 62 VRB 3 6 30.19 1022 10 16 N/A
1:53 pm 13:53 Sunny 79 26.1 65 18.3 62 62 SE 6 9 30.17 1022 10 16 N/A
2:53 pm 14:53 Sunny 82 27.8 64 17.8 55 55 N N/A 30.16 1022 10 16 N/A
3:53 pm 15:53 Sunny 82 27.8 62 16.7 51 51 E 3 6 30.14 1021 10 16 N/A
4:53 pm 16:53 Sunny 82 27.8 65 18.3 56 56 VRB 5 7 30.12 1020 10 16 N/A
5:53 pm 17:53 Sunny 82 27.8 66 18.9 58 58 SSW 5 7 30.12 1020 10 16 N/A
6:53 pm 18:53 Sunny 81 27.2 67 19.4 62 62 SSW 5 7 30.11 1020 10 16 N/A
7:53 pm 19:53 Sunny 77 25 66 18.9 69 69 S 7 11 30.11 1020 10 16 N/A
8:53 pm 20:53 Clear 73 22.8 67 19.4 81 81 SSW 3 6 30.12 1020 10 16 N/A
9:53 pm 21:53 Clear 69 20.6 66 18.9 90 90 N N/A 30.14 1021 10 16 N/A
10:53 pm 22:53 Clear 67 19.4 66 18.9 97 97 N N/A 30.14 1021 10 16 N/A
11:53 pm 23:53 Clear 66 18.9 65 18.3 96 96 N N/A 30.13 1020 8 13 N/A

Powered by AerisWeather